EW8328 Weather Reports


time (UTC)temp
C
wind
direction
speed
KPH
gust
KPH
rain 1hr
cm
rain 24hr
cm
rain mn
cm
humidity
%
barometer
mb
20260502130350 15 283 4.8 14.5 0.00 0.00 0.00 67 1014.2
20260502123351 14 302 3.2 8.0 0.00 0.00 0.00 73 1014.6
20260502122851 13 263 4.8 9.7 0.00 0.00 0.00 74 1014.6
20260502122351 13 248 4.8 9.7 0.00 0.00 0.00 74 1014.9
20260502121851 13 309 3.2 9.7 0.00 0.00 0.00 77 1015.0
20260502121350 12 290 1.6 4.8 0.00 0.00 0.00 78 1015.0
20260502120850 12 289 3.2 11.3 0.00 0.00 0.00 77 1015.3
20260502115850 12 260 4.8 12.9 0.00 0.00 0.00 76 1015.3
20260502115350 12 293 3.2 11.3 0.00 0.00 0.00 76 1015.4
20260502114851 12 259 4.8 11.3 0.00 0.00 0.00 77 1015.4
20260502113851 12 238 3.2 11.3 0.00 0.00 0.00 74 1015.3
20260502113350 12 222 8.0 12.9 0.00 0.00 0.00 75 1015.2
20260502112850 12 218 8.0 12.9 0.00 0.00 0.00 77 1015.2
20260502112350 12 240 4.8 9.7 0.00 0.00 0.00 78 1015.1
20260502111851 12 265 4.8 9.7 0.00 0.00 0.00 79 1015.1
20260502111351 12 245 4.8 9.7 0.00 0.00 0.00 79 1015.1
20260502110351 12 260 4.8 12.9 0.00 0.00 0.00 81 1015.1
20260502105851 12 251 4.8 9.7 0.00 0.00 0.00 80 1015.0
20260502105350 12 276 4.8 9.7 0.00 0.00 0.00 81 1015.2
20260502104850 12 254 4.8 11.3 0.00 0.00 0.00 82 1015.2
20260502104350 12 294 1.6 4.8 0.00 0.00 0.00 83 1015.3
20260502103851 12 248 3.2 8.0 0.00 0.00 0.00 83 1015.3
20260502103351 12 268 3.2 8.0 0.00 0.00 0.00 83 1015.3
20260502102851 11 250 4.8 11.3 0.00 0.00 0.00 84 1015.4
20260502102351 11 248 3.2 8.0 0.00 0.00 0.00 84 1015.5
20260502101850 11 260 4.8 12.9 0.00 0.00 0.00 83 1015.6
20260502101350 12 256 3.2 9.7 0.00 0.00 0.00 83 1015.4
20260502100851 11 304 3.2 4.8 0.00 0.00 0.00 83 1015.4
20260502091351 11 274 3.2 8.0 0.00 0.00 0.00 85 1015.7
20260502090850 11 295 3.2 4.8 0.00 0.00 0.00 85 1015.8
20260502090350 11 288 3.2 8.0 0.00 0.00 0.00 86 1015.8
20260502071350 10 273 1.6 4.8 0.00 0.00 0.00 88 1015.7
20260502070851 10 256 3.2 4.8 0.00 0.00 0.00 88 1015.7
20260502070350 10 270 1.6 4.8 0.00 0.00 0.00 88 1015.7
20260502065850 10 244 1.6 4.8 0.00 0.00 0.00 88 1015.7
20260502065350 10 261 1.6 3.2 0.00 0.00 0.00 88 1015.7
20260502063850 10 237 3.2 8.0 0.00 0.00 0.00 88 1015.7
20260502063350 10 254 3.2 4.8 0.00 0.00 0.00 89 1015.6
20260502062350 10 251 1.6 9.7 0.00 0.00 0.00 89 1015.5
20260502061850 10 267 3.2 4.8 0.00 0.00 0.00 89 1015.5
20260502061351 10 251 4.8 8.0 0.00 0.00 0.00 89 1015.6
20260502060850 10 264 3.2 9.7 0.00 0.00 0.00 89 1015.6
20260502060350 10 255 4.8 11.3 0.00 0.00 0.00 89 1015.6
20260502055851 10 263 3.2 4.8 0.00 0.00 0.00 89 1015.6
20260502055350 10 274 3.2 11.3 0.00 0.00 0.00 88 1015.6
20260502054350 10 273 3.2 4.8 0.00 0.00 0.00 88 1015.6
20260502053851 10 264 3.2 4.8 0.00 0.00 0.00 88 1015.6
20260502052850 10 263 3.2 9.7 0.00 0.00 0.00 88 1015.6
20260502051850 10 247 4.8 12.9 0.00 0.00 0.00 88 1015.6
20260502051350 10 260 6.4 14.5 0.00 0.00 0.00 88 1015.6
20260502050850 10 255 6.4 19.3 0.00 0.00 0.00 88 1015.6
20260502045851 10 273 8.0 14.5 0.00 0.00 0.00 88 1015.6
20260502044850 10 227 3.2 8.0 0.00 0.00 0.00 88 1015.6
20260502044350 10 277 1.6 4.8 0.00 0.00 0.00 88 1015.6
20260502043850 10 229 1.6 4.8 0.00 0.00 0.00 88 1015.6
20260502043350 10 207 1.6 3.2 0.00 0.00 0.00 88 1015.5
20260502042850 10 256 1.6 3.2 0.00 0.00 0.00 88 1015.6
20260502042350 10 263 1.6 4.8 0.00 0.00 0.00 88 1015.6
20260502041851 10 226 1.6 4.8 0.00 0.00 0.00 88 1015.6
20260502041350 10 264 3.2 4.8 0.00 0.00 0.00 88 1015.7
20260502040850 10 246 3.2 8.0 0.00 0.00 0.00 88 1015.6
20260502040350 10 265 3.2 9.7 0.00 0.00 0.00 88 1015.7
20260502035850 10 289 1.6 4.8 0.00 0.00 0.00 88 1015.7
20260502035350 10 284 1.6 4.8 0.00 0.00 0.00 88 1015.7
20260502034850 10 294 0.0 4.8 0.00 0.00 0.00 88 1015.7
20260502034350 10 268 1.6 4.8 0.00 0.00 0.00 89 1015.7
20260502033850 10 260 3.2 4.8 0.00 0.00 0.00 89 1015.7
20260502033350 10 302 1.6 4.8 0.00 0.00 0.00 89 1015.7
20260502032850 10 286 3.2 4.8 0.00 0.00 0.00 89 1015.7
20260502032350 10 230 1.6 4.8 0.00 0.00 0.00 90 1015.6
20260502031350 9 252 3.2 4.8 0.00 0.00 0.00 90 1015.6
20260502030350 9 272 1.6 4.8 0.00 0.00 0.00 90 1015.6
20260502025850 9 272 1.6 4.8 0.00 0.00 0.00 90 1015.6
20260502025350 9 269 1.6 4.8 0.00 0.00 0.00 90 1015.5
20260502024850 9 298 3.2 4.8 0.00 0.00 0.00 90 1015.5
20260502024349 9 291 1.6 4.8 0.00 0.00 0.00 90 1015.6
20260502023350 9 268 1.6 4.8 0.00 0.00 0.00 90 1015.6
20260502022850 9 285 3.2 4.8 0.00 0.00 0.00 90 1015.6
20260502022351 9 275 1.6 4.8 0.00 0.00 0.00 90 1015.7
20260502021850 9 279 1.6 8.0 0.00 0.00 0.00 91 1015.8
20260502021350 9 289 3.2 4.8 0.00 0.00 0.00 91 1015.8
20260502020849 9 277 3.2 4.8 0.00 0.00 0.00 90 1015.8
20260502015850 9 266 3.2 4.8 0.00 0.00 0.00 90 1015.9
20260502015349 9 257 4.8 9.7 0.00 0.00 0.00 90 1016.0
20260502014850 9 279 4.8 11.3 0.00 0.00 0.00 89 1016.1
20260502014349 10 260 4.8 11.3 0.00 0.00 0.00 89 1016.1
20260502013349 10 264 3.2 8.0 0.00 0.00 0.00 89 1016.1
20260502012849 10 259 3.2 11.3 0.00 0.00 0.00 89 1016.2
20260502012349 10 270 3.2 4.8 0.00 0.00 0.00 89 1016.3
20260502011851 10 266 4.8 9.7 0.00 0.00 0.00 88 1016.3
20260502011349 10 267 4.8 12.9 0.00 0.00 0.00 88 1016.3
20260502010850 10 264 3.2 12.9 0.00 0.00 0.00 88 1016.4
20260502010349 10 281 6.4 12.9 0.00 0.00 0.00 89 1016.5
20260502005850 10 274 6.4 16.1 0.00 0.00 0.00 89 1016.6
20260502005350 10 249 3.2 11.3 0.00 0.00 0.00 89 1016.7
20260502004850 10 255 4.8 14.5 0.00 0.00 0.00 89 1016.7
20260502004350 10 252 4.8 11.3 0.00 0.00 0.00 89 1016.8
20260502003850 10 262 3.2 25.7 0.00 0.00 0.00 90 1016.8
20260502003350 10 269 3.2 8.0 0.00 0.00 0.00 90 1016.8
20260502002850 10 249 4.8 8.0 0.00 0.00 0.00 90 1016.8
20260502000350 11 243 3.2 4.8 0.00 0.00 0.00 90 1016.8
20260501235350 11 292 1.6 4.8 0.00 0.00 0.00 90 1016.9
20260501233349 11 254 3.2 8.0 0.00 0.00 0.00 89 1016.7
20260501232850 11 275 3.2 8.0 0.00 0.00 0.00 90 1016.7
20260501232349 11 275 3.2 9.7 0.00 0.00 0.00 90 1016.7
20260501231850 11 265 3.2 11.3 0.00 0.00 0.00 90 1016.8
20260501231349 11 263 4.8 9.7 0.00 0.00 0.00 90 1016.8
20260501230934 11 285 4.8 9.7 0.00 0.00 0.00 90 1016.7
20260501230350 11 250 3.2 11.3 0.00 0.00 0.00 90 1016.7
20260501225349 11 256 4.8 11.3 0.00 0.00 0.00 90 1016.7
20260501224849 11 265 4.8 11.3 0.00 0.00 0.00 90 1016.7
20260501224350 11 260 4.8 11.3 0.00 0.00 0.00 90 1016.7
20260501223850 11 261 4.8 12.9 0.00 0.00 0.00 90 1016.7
20260501223350 11 252 6.4 11.3 0.00 0.00 0.00 91 1016.7
20260501222850 11 251 6.4 14.5 0.00 0.00 0.00 91 1016.7
20260501222350 11 248 4.8 11.3 0.00 0.00 0.00 91 1016.7
20260501221350 11 272 6.4 12.9 0.00 0.00 0.00 91 1016.6
20260501220350 11 266 4.8 14.5 0.00 0.00 0.00 91 1016.6
20260501215850 11 269 6.4 14.5 0.00 0.00 0.00 91 1016.6
20260501215349 11 275 3.2 11.3 0.00 0.00 0.00 91 1016.6
20260501214850 11 279 4.8 8.0 0.00 0.00 0.00 90 1016.7
20260501213850 11 247 4.8 9.7 0.00 0.00 0.00 90 1016.8
20260501213349 11 257 3.2 9.7 0.00 0.00 0.00 90 1016.8
20260501212850 11 263 3.2 4.8 0.00 0.00 0.00 90 1016.8
20260501212349 11 256 4.8 11.3 0.00 0.00 0.00 89 1016.8
20260501211850 11 261 4.8 11.3 0.00 0.00 0.00 89 1016.8
20260501211349 11 261 4.8 9.7 0.00 0.00 0.00 89 1016.8
20260501210851 11 267 3.2 9.7 0.00 0.00 0.00 89 1016.8
20260501205349 11 277 4.8 14.5 0.00 0.00 0.00 89 1016.7
20260501204850 11 267 4.8 11.3 0.00 0.00 0.00 88 1016.8
20260501204350 11 275 4.8 11.3 0.00 0.00 0.00 87 1016.8
20260501203350 12 279 4.8 12.9 0.00 0.00 0.00 86 1016.9
20260501202849 12 272 4.8 9.7 0.00 0.00 0.00 86 1017.0
20260501202349 12 263 4.8 11.3 0.00 0.00 0.00 85 1017.0
20260501201849 12 258 3.2 11.3 0.00 0.00 0.00 85 1017.1
20260501201349 12 280 3.2 8.0 0.00 0.00 0.00 84 1017.0
20260501195849 12 256 3.2 8.0 0.00 0.00 0.00 82 1017.1
20260501195349 12 264 4.8 9.7 0.00 0.00 0.00 82 1017.1
20260501194850 12 263 4.8 9.7 0.00 0.00 0.00 82 1017.0
20260501194350 12 269 4.8 9.7 0.00 0.00 0.00 82 1017.0
20260501193850 12 281 3.2 8.0 0.00 0.00 0.00 82 1017.0
20260501193351 12 261 3.2 8.0 0.00 0.00 0.00 81 1017.0
20260501192349 12 294 3.2 8.0 0.00 0.00 0.00 81 1017.0
20260501191851 13 275 3.2 8.0 0.00 0.00 0.00 80 1016.9
20260501191349 13 282 3.2 4.8 0.00 0.00 0.00 80 1016.9
20260501190850 13 276 4.8 8.0 0.00 0.00 0.00 80 1016.8
20260501190349 13 280 3.2 4.8 0.00 0.00 0.00 79 1016.9
20260501185849 13 283 3.2 11.3 0.00 0.00 0.00 79 1016.9
20260501185349 13 281 6.4 11.3 0.00 0.00 0.00 78 1016.9
20260501184349 13 270 8.0 16.1 0.00 0.00 0.00 76 1017.0
20260501183849 13 244 4.8 11.3 0.00 0.00 0.00 76 1017.0
20260501182349 13 246 8.0 19.3 0.00 0.00 0.00 74 1016.9
20260501181849 14 264 8.0 16.1 0.00 0.00 0.00 73 1016.8
20260501181349 14 269 9.7 16.1 0.00 0.00 0.00 73 1016.9
20260501180349 14 272 6.4 12.9 0.00 0.00 0.00 72 1016.7
20260501175849 15 263 9.7 20.9 0.00 0.00 0.00 71 1016.7
20260501175349 15 281 4.8 19.3 0.00 0.00 0.00 71 1016.6
20260501174849 15 265 6.4 16.1 0.00 0.00 0.00 71 1016.6
20260501174349 15 259 8.0 16.1 0.00 0.00 0.00 71 1016.6
20260501173850 15 278 6.4 16.1 0.00 0.00 0.00 71 1016.5
20260501173349 15 267 9.7 19.3 0.00 0.00 0.00 71 1016.6
20260501172850 15 256 8.0 16.1 0.00 0.00 0.00 71 1016.6
20260501170349 16 268 4.8 8.0 0.00 0.00 0.00 68 1016.5
20260501165849 16 295 3.2 8.0 0.00 0.00 0.00 67 1016.5
20260501165348 16 270 3.2 9.7 0.00 0.00 0.00 67 1016.5
20260501164849 16 274 4.8 8.0 0.00 0.00 0.00 66 1016.4
20260501164349 16 281 4.8 14.5 0.00 0.00 0.00 66 1016.4
20260501163849 16 272 4.8 9.7 0.00 0.00 0.00 65 1016.4
20260501163350 17 281 4.8 9.7 0.00 0.00 0.00 64 1016.4
20260501162850 17 287 6.4 11.3 0.00 0.00 0.00 64 1016.3
20260501162349 17 294 8.0 19.3 0.00 0.00 0.00 64 1016.3
20260501161850 17 295 4.8 9.7 0.00 0.00 0.00 63 1016.4
20260501161349 17 312 4.8 11.3 0.00 0.00 0.00 63 1016.4
20260501160350 18 305 4.8 8.0 0.00 0.00 0.00 61 1016.6
20260501155849 18 297 4.8 9.7 0.00 0.00 0.00 60 1016.6
20260501154349 19 284 4.8 8.0 0.00 0.00 0.00 60 1016.6
20260501153849 19 291 4.8 8.0 0.00 0.00 0.00 61 1016.6
20260501153350 19 308 3.2 8.0 0.00 0.00 0.00 61 1016.6
20260501152849 19 321 4.8 9.7 0.00 0.00 0.00 60 1016.6
20260501151849 19 320 4.8 9.7 0.00 0.00 0.00 60 1016.7
20260501150849 20 343 4.8 9.7 0.00 0.00 0.00 60 1016.7
20260501150349 20 340 6.4 11.3 0.00 0.00 0.00 59 1016.7
20260501145849 20 329 4.8 11.3 0.00 0.00 0.00 58 1016.8
20260501145349 20 308 4.8 8.0 0.00 0.00 0.00 58 1016.8
20260501144851 20 307 3.2 4.8 0.00 0.00 0.00 57 1016.8
20260501144349 20 276 1.6 4.8 0.00 0.00 0.00 57 1016.9
20260501143850 20 324 4.8 8.0 0.00 0.00 0.00 56 1016.8
20260501143349 21 326 3.2 4.8 0.00 0.00 0.00 54 1016.9
20260501141850 21 160 4.8 16.1 0.00 0.00 0.00 48 1016.9
20260501141349 22 156 11.3 19.3 0.00 0.00 0.00 48 1016.9
20260501140850 21 104 4.8 12.9 0.00 0.00 0.00 48 1016.9
20260501140349 21 99 4.8 11.3 0.00 0.00 0.00 48 1017.0
20260501135349 22 180 8.0 12.9 0.00 0.00 0.00 47 1017.0
20260501134849 22 152 11.3 19.3 0.00 0.00 0.00 46 1017.1
20260501134349 22 118 4.8 12.9 0.00 0.00 0.00 45 1017.1